Location: Augsburg
(48.3836°N, 10.8929°E)
Time: 11:54:24
(UTC+02:00)

ISS - Visible Passes

Search period start: 20 May 2018 00:00
Search period end: 30 May 2018 00:00
Orbit: 402 x 407 km, 51.6° (Epoch: 20 May)

Date Brightness Start Highest point End Pass type
(mag) Time Alt. Az. Time Alt. Az. Time Alt. Az.
20 May -1.8 00:06:25 19° ENE 00:06:25 19° ENE 00:07:30 10° ENE visible
20 May -2.8 01:38:57 20° WNW 01:40:52 46° N 01:44:03 10° ENE visible
20 May -3.4 03:14:24 10° WNW 03:17:39 63° NNE 03:20:54 10° E visible
20 May -3.2 04:51:01 10° W 04:54:02 34° SW 04:57:01 10° SSE visible
20 May -3.8 23:08:54 10° SW 23:12:04 51° SSE 23:15:16 10° ENE visible
21 May -3.0 00:45:23 10° W 00:48:36 52° N 00:51:48 10° ENE visible
21 May -3.0 02:22:11 10° WNW 02:25:24 50° N 02:28:35 10° E visible
21 May -3.8 03:58:43 10° WNW 04:01:56 55° SSW 04:05:08 10° SE visible
21 May -3.1 22:17:02 10° SSW 22:19:59 31° SE 22:22:56 10° E visible
21 May -3.5 23:53:04 10° W 23:56:20 65° NNW 23:59:35 10° ENE visible
22 May -2.7 01:29:56 10° WNW 01:33:06 45° N 01:36:16 10° ENE visible
22 May -4.0 03:06:29 10° WNW 03:09:47 85° SSW 03:13:02 10° ESE visible
22 May -2.3 04:43:35 10° W 04:45:53 18° SW 04:48:09 10° S visible
22 May -3.9 23:00:49 10° WSW 23:04:05 89° WNW 23:07:22 10° ENE visible
23 May -2.7 00:37:37 10° WNW 00:40:47 45° N 00:43:57 10° ENE visible
23 May -3.6 02:14:16 10° WNW 02:17:32 69° NNE 02:20:48 10° ESE visible
23 May -3.0 03:50:58 10° W 03:53:51 29° SW 03:56:43 10° SSE visible
23 May -3.9 22:08:40 10° SW 22:11:54 60° SSE 22:15:07 10° ENE visible
23 May -2.9 23:45:16 10° W 23:48:28 49° N 23:51:39 10° ENE visible
24 May -3.1 01:22:01 10° WNW 01:25:15 54° N 01:27:48 15° E visible
24 May -2.4 02:58:35 10° WNW 03:00:12 25° W 03:00:12 25° W visible
24 May -3.3 22:52:54 10° W 22:56:09 60° NNW 22:59:23 10° ENE visible
25 May -2.8 00:29:45 10° WNW 00:32:56 47° N 00:35:35 14° ENE visible
25 May -2.6 02:06:18 10° WNW 02:08:10 31° WNW 02:08:10 31° WNW visible
25 May -3.7 22:00:34 10° WSW 22:03:51 80° NNW 22:07:08 10° ENE visible
25 May -2.7 23:37:25 10° WNW 23:40:35 45° N 23:43:44 10° ENE visible
26 May -3.7 01:14:02 10° WNW 01:17:03 70° NNW 01:17:03 70° NNW visible
26 May -2.8 22:45:01 10° W 22:48:13 47° N 22:51:24 10° ENE visible
27 May -3.3 00:21:45 10° WNW 00:25:00 58° NNE 00:26:11 34° ENE visible
27 May -1.3 01:58:20 10° WNW 01:58:47 13° W 01:58:47 13° W visible
27 May -3.0 21:52:37 10° W 21:55:51 55° NNW 21:59:05 10° ENE visible
27 May -2.9 23:29:27 10° WNW 23:32:39 48° N 23:35:23 13° E visible
28 May -2.7 01:05:58 10° WNW 01:08:01 34° W 01:08:01 34° W visible
28 May -2.7 22:37:05 10° WNW 22:40:15 45° N 22:43:26 10° ENE visible
29 May -3.9 00:13:40 10° WNW 00:16:57 87° NNE 00:17:18 69° ESE visible
29 May -2.7 21:44:40 10° W 21:47:51 46° N 21:51:01 10° ENE visible
29 May -3.5 23:21:22 10° WNW 23:24:37 64° NNE 23:26:37 21° E visible
